Preview of NWS' New Version of Forecast
This preview is not operational and should not be used for support decisions.

Regional Weather Roundup (RWR)

Issued by National Weather Service (NWS)

                            
000
ASUS42 KTBW 191116
RWRFL 
FLORIDA REGIONAL WEATHER ROUNDUP
NATIONAL WEATHER SERVICE TAMPA BAY RUSKIN FL
700 AM EDT TUE MAR 19 2019

NOTE: "FAIR" INDICATES FEW OR NO CLOUDS BELOW 12,000 FEET WITH NO
SIGNIFICANT WEATHER AND/OR OBSTRUCTIONS TO VISIBILITY.

FLZ001>010-012>015-112-114-115-191200-
PANHANDLE FLORIDA
  
CITY           SKY/WX    TMP DP  RH WIND       PRES   REMARKS
PENSACOLA      FAIR      50  28  42 N8        30.24R                  
PENSACOLA NAS  MOCLDY    50  28  42 N10       30.24R                  
MILTON NAS     MOCLDY    45  28  51 N5        30.25R WCI  43          
CRESTVIEW      FAIR      46  26  45 N3        30.25R                  
DUKE FIELD     FAIR      46  26  45 N7        30.23R WCI  42          
VALPARAISO     FAIR      48  26  42 N8        30.22R WCI  44          
MARY ESTHER    MOCLDY    49  24  38 NE10      30.22R WCI  44          
PANAMA CITY    FAIR      48  32  53 N5        30.21R                  
TYNDALL AFB    FAIR      52  27  38 N8        30.21R                  
APALACHICOLA   FAIR      52  29  41 N12       30.18R                  

STATION/POSITION SKY/WX   TEMP    WIND        PRES    WAVE   SWELL
                          AIR SEA DIR/SP/G            HT/PER HT/PER
                          (F)     (DEG/KT/KT) (MB)    (FT/S) (FT/S)
30.1N   87.6W                                 1023.7R   4/ 5
29.2N   88.2W                      30/ 21/ 27 1022.7R   7/ 7
PANAMA CITY BEAC           50 64   20/  8/ 12 1023.4R
TOWER C                    58      40/ 23/ 25 1021.3R

$$
FLZ011-016>038-118-127-128-134-139-239-191200-
NORTH FLORIDA
  
CITY           SKY/WX    TMP DP  RH WIND       PRES   REMARKS
MARIANNA       FAIR      48  25  40 NE8       30.21R WCI  44          
TALLAHASSEE    CLOUDY    51  27  39 N7        30.20R                  
PERRY          FAIR      51  31  46 N3        30.19R                  
LIVE OAK       CLOUDY    50  30  46 N6        30.18R                  
CROSS CITY     FAIR      53  32  44 N6        30.16R                  
LAKE CITY      FAIR      50  32  50 NE8       30.17R                  
GAINESVILLE    FAIR      56  34  43 N9        30.17R                  
WILLISTON        N/A    N/A N/A N/A MISG        N/A                   
PALATKA        MOCLDY   N/A N/A N/A N6        30.14S                  
MAYPORT NAS    CLOUDY    60  51  72 NE13      30.15S                  
JACKSONVILLE   CLOUDY    52  40  63 N6        30.16R                  
JAX NAS        CLOUDY    56  42  59 N13       30.16R                  
JAX CECIL      MOCLDY   N/A N/A N/A N8        30.15S                  
FERNANDINA BEA FAIR      60  47  61 NE17      30.16S                  
ST AUGUSTINE   FAIR      55  47  74 NW8       30.15S                  
PALM COAST     CLEAR     57  46  67 N5        30.12S                  

STATION/POSITION SKY/WX   TEMP    WIND        PRES    WAVE   SWELL
                          AIR SEA DIR/SP/G            HT/PER HT/PER
                          (F)     (DEG/KT/KT) (MB)    (FT/S) (FT/S)
SHELL POINT      NOT AVBL
KEATON BEACH               51      20/  6/  9 1021.6R
CEDAR KEY                  56      40/  9/ 12 1019.9F
FERNANDINA                 62 63   30/  6/ 11 1021.9S
30.7N   81.3W                 63                N/A     4/ 3
MAYPORT                    58 63   20/  6/  9 1020.8F
31.4N   80.9W              59 62   50/ 25/ 31 1021.5R   7/ 6   2/11
ST AUGUSTINE               61 62  360/ 16/ 17 1020.4F

$$
FLZ040-043>046-052-053-057-058-063-144-191200-
INTERIOR CENTRAL FLORIDA
  
CITY           SKY/WX    TMP DP  RH WIND       PRES   REMARKS
OCALA          MOCLDY    56  40  55 N8        30.14R                  
LEESBURG       MOCLDY    58  42  55 N9        30.12R                  
SANFORD        MOCLDY    60  45  57 N9        30.10S                  
ORLANDO EXEC   CLOUDY    58  50  75 N3        30.10S                  
ORLANDO INTL   LGT RAIN  57  49  74 N7        30.10S                  
KISSIMMEE      LGT RAIN  57  52  83 VRB3      30.11S                  
WINTER HAVEN   CLOUDY    56  50  80 NE7       30.12R                  
LAKELAND       MOCLDY    55  46  71 N5        30.11R                  
BARTOW         CLOUDY    55  52  88 N6        30.09S                  
SEBRING        LGT RAIN  55  54  95 N9        30.08F                  
OKEECHOBEE     LGT RAIN  57  55  94 N7        30.06R                  

$$
FLZ041-047-054-059-064-141-147-191200-
EAST CENTRAL FLORIDA
  
CITY           SKY/WX    TMP DP  RH WIND       PRES   REMARKS
ORMOND BEACH   CLOUDY    61  46  59 N8        30.12                   
DAYTONA BEACH  CLOUDY    62  49  62 N13       30.11S                  
DELAND         MOCLDY    57  46  67 N10       30.10S                  
NEW SMYRNA BEA CLOUDY    63  48  59 N12G18    30.11                   
JFK SPACE CTR  FAIR      59  56  89 CALM      30.09S                  
TITUSVILLE     CLOUDY    59  57  94 NW3       30.11R                  
CAPE CANAVERAL LGT RAIN  60  56  86 CALM      30.09R                  
PATRICK AFB    CLOUDY    62  61  95 NE10      30.09S                  
MELBOURNE      RAIN      61  56  83 NE9       30.09R                  
VERO BEACH     LGT RAIN  62  59  90 NE12G18   30.07R                  
FT PIERCE      LGT RAIN  63  59  87 NE7       30.06R                  
STUART         CLOUDY    66  59  77 N18       30.05F                  

STATION/POSITION SKY/WX   TEMP    WIND        PRES    WAVE   SWELL
                          AIR SEA DIR/SP/G            HT/PER HT/PER
                          (F)     (DEG/KT/KT) (MB)    (FT/S) (FT/S)
28.5N   80.2W              67      50/ 16/ 21 1019.5R   6/ 8   3/ 8
28.9N   78.5W              66 74   30/ 17/ 21 1019.1R   6/ 8   3/ 8
TRIDENT PIER               60 68   20/  3/  5 1020.3R
28.4N   80.5W                 66                N/A     3/ 8
27.5N   80.2W                 69                N/A     6/ 8   2/11

$$
FLZ050-056-061-142-242-148-248-149-249-151-251-155-255-
160-260-191200-
WEST CENTRAL FLORIDA
  
CITY           SKY/WX    TMP DP  RH WIND       PRES   REMARKS
CRYSTAL RIVER  CLOUDY    55  37  50 N3        30.14R                  
INVERNESS      CLOUDY    55  43  62 N6        30.13R                  
BROOKSVILLE    CLOUDY    56  42  59 CALM      30.13R                  
CLEARWATER AIR LGT RAIN  55  45  67 NE3       30.12R                  
ST PETE CLEARW LGT RAIN  58  45  62 N12       30.12R                  
TAMPA INTL     LGT RAIN  57  49  74 N6        30.12R                  
TAMPA EXEC     LGT RAIN  54  52  94 CALM      30.13R                  
PLANT CITY     CLOUDY    57  52  82 CALM      30.14R                  
MACDILL AFB    LGT RAIN  55  49  81 N5        30.11R                  
PETER O KNIGHT LGT RAIN  57  52  82 N3        30.12R                  
ST PETERSBURG  LGT RAIN  59  51  75 N6        30.10R                  
SARASOTA       LGT RAIN  53  50  89 NE6       30.08R                  
VENICE         RAIN      54  52  94 NE16      30.09S                  

STATION/POSITION SKY/WX   TEMP    WIND        PRES    WAVE   SWELL
                          AIR SEA DIR/SP/G            HT/PER HT/PER
                          (F)     (DEG/KT/KT) (MB)    (FT/S) (FT/S)
27.3N   84.2W                 72                N/A     6/ 6
CLEARWATER BEACH           59 71   40/  9/ 11 1019.9R
MIDDLE TAMPA BAY           60      70/ 13/ 16 1019.7R
VENICE                     51 72   30/ 13/ 17 1018.1R

$$
FLZ066-069-070-075>078-162-262-165-265-191200-
SOUTHWEST FLORIDA AND KEYS
  
CITY           SKY/WX    TMP DP  RH WIND       PRES   REMARKS
PUNTA GORDA    LGT RAIN  54  52  93 N9        30.10R                  
FT MYERS       LGT RAIN  56  55  97 NE9       30.04R                  
SOUTHWEST INTL RAIN      56  55  97 NE9       30.05R                  
NAPLES         LGT RAIN N/A N/A N/A NE12      30.03R                  
MARCO ISLAND   LGT RAIN  60  59  96 NE12      30.04R                  
IMMOKALEE      LGT RAIN  57  57 100 N7G14     30.03R                  
MARATHON       CLOUDY    73  67  81 NE17G25   29.95S                  
KEY WEST NAS   CLOUDY    72  68  87 NE16G23   29.96R                  
KEY WEST INTL  LGT RAIN  71  68  90 NE15G22   29.96R                  

STATION/POSITION SKY/WX   TEMP    WIND        PRES    WAVE   SWELL
                          AIR SEA DIR/SP/G            HT/PER HT/PER
                          (F)     (DEG/KT/KT) (MB)    (FT/S) (FT/S)
NAPLES                     61 74   50/  7/ 12 1016.8R
26.0N   85.6W              68 79   60/ 19/ 23 1016.6F   6/ 6   2/11
DRY TORTUGAS               69      50/ 32/ 36 1015.0R
SAND KEY                   71                 1013.8R
SOMBRERO KEY               71                 1013.5R
MOLASSES REEF              71 78  360/ 18/ 20 1014.2

$$
FLZ067-068-071>074-168-172>174-191200-
SOUTHEAST FLORIDA 
  
CITY           SKY/WX    TMP DP  RH WIND       PRES   REMARKS
W PALM BEACH   CLOUDY    67  62  84 NE14G23   30.01S                  
BOCA RATON     MOCLDY    68  64  88 NE14G25   30.01                   
FT LAUDER-EXEC CLOUDY    68  66  93 NE14G21   29.99R                  
FT LAUDERDALE  LGT RAIN  69  64  84 NE12G30   29.99R                  
POMPANO BEACH  CLOUDY    69  63  81 NE20G29   30.00R                  
PEMBROKE PINES LGT RAIN  69  63  81 NE18G24   30.01R                  
OPA LOCKA      LGT RAIN  69  63  81 NE17G25   29.99R                  
MIAMI          LGT RAIN  68  67  96 NE7       29.99R                  
WEST KENDALL   LGT RAIN  68  65  90 NE14      29.99R                  
HOMESTEAD      RAIN      68  66  93 N10       29.97R                  

STATION/POSITION SKY/WX   TEMP    WIND        PRES    WAVE   SWELL
                          AIR SEA DIR/SP/G            HT/PER HT/PER
                          (F)     (DEG/KT/KT) (MB)    (FT/S) (FT/S)
VIRGINIA KEY               69 77  360/ 12/ 14 1014.2R
LAKE WORTH                 69 76   40/ 26/ 32 1017.1S
FOWEY ROCKS                70 78   20/ 25/ 27 1015.1R
SETTLEMENT POINT           67      30/ 25/ 30 1016.0R

$$